Change the Weather History Date:

Friday, January 13, 2012

  Actual Average (KMTC) Record (KMTC)
Temperature  
Mean Temperature 24 °F -  
Max Temperature 30 °F 29 °F 59 °F (1950)
Min Temperature 19 °F 16 °F -4 °F (1977)
Degree Days  
Heating Degree Days 40    
Moisture  
Dew Point 18 °F    
Average Humidity 79    
Maximum Humidity 93    
Minimum Humidity 68    
Precipitation  
Precipitation 0.00 in - - ()
Sea Level Pressure  
Sea Level Pressure 29.50 in    
Wind  
Wind Speed 11 mph (West)    
Max Wind Speed 17 mph    
Max Gust Speed 23 mph    
Visibility 6 miles    
Events Snow    
Averages and records for this station are not official NWS values.
T = Trace of Precipitation, MM = Missing Value Source: NWS Daily Summary

Daily Weather History Graph

Daily Weather History Graph

Search for Another Location

Airport or City:

Trip Planner

Search our weather history database for the weather conditions in past years. The results will help you decide how hot, cold, wet, or windy it might be!

Date:

Astronomy

Jan. 13, 2012 Rise Set
Actual Time 7:59 AM EST 5:18 PM EST
Civil Twilight 7:27 AM EST 5:49 PM EST
Nautical Twilight 6:52 AM EST 6:24 PM EST
Astronomical Twilight 6:18 AM EST 6:59 PM EST
Moon 10:39 PM EST (1/13) 10:04 AM EST (1/13)
Length of Visible Light 10h 21m
Length of Day
9h 18m
Waning Gibbous, 79% of the Moon is Illuminated
Jan 13
Waning Gibbous
Jan 16
Last Quarter
Jan 23
New
Jan 30
First Quarter
Feb 7
Full

Hourly Weather History & Observations

Time (EST) Temp. Windchill Dew Point Humidity Pressure Visibility Wind Dir Wind Speed Gust Speed Precip Events Conditions
12:18 AM 30.2 °F 20.2 °F 28.4 °F 93% 29.30 in 7.0 mi SW 12.7 mph 20.7 mph N/A   Overcast
12:38 AM 30.2 °F 20.8 °F 26.6 °F 86% 29.30 in 10.0 mi SW 11.5 mph 19.6 mph N/A   Overcast
12:58 AM 30.2 °F 21.3 °F 24.8 °F 80% 29.31 in 10.0 mi SW 10.4 mph 19.6 mph N/A   Overcast
1:18 AM 28.4 °F 18.5 °F 24.8 °F 86% 29.31 in 10.0 mi SW 11.5 mph 19.6 mph N/A   Overcast
1:38 AM 28.4 °F 19.7 °F 23.0 °F 80% 29.31 in 10.0 mi SW 9.2 mph 18.4 mph N/A   Overcast
1:58 AM 26.6 °F 13.8 °F 21.2 °F 80% 29.33 in 10.0 mi SSW 17.3 mph 23.0 mph N/A   Overcast
2:18 AM 24.8 °F 12.4 °F 19.4 °F 80% 29.33 in 10.0 mi SSW 15.0 mph 20.7 mph N/A   Overcast
2:38 AM 24.8 °F 11.9 °F 19.4 °F 80% 29.34 in 10.0 mi SW 16.1 mph 19.6 mph N/A   Overcast
2:57 AM 24.8 °F 13.4 °F 17.6 °F 74% 29.35 in 10.0 mi SW 12.7 mph 21.9 mph N/A   Overcast
3:18 AM 23.0 °F 11.7 °F 17.6 °F 80% 29.36 in 10.0 mi SSW 11.5 mph 19.6 mph N/A   Overcast
3:37 AM 23.0 °F 11.7 °F 17.6 °F 80% 29.36 in 10.0 mi SW 11.5 mph 18.4 mph N/A   Overcast
3:58 AM 23.0 °F 13.9 °F 17.6 °F 80% 29.36 in 7.0 mi SSW 8.1 mph 16.1 mph N/A   Overcast
4:18 AM 23.0 °F 12.4 °F 15.8 °F 74% 29.36 in 5.0 mi SSW 10.4 mph 18.4 mph N/A Snow Light Snow
4:38 AM 21.2 °F 9.5 °F 15.8 °F 80% 29.36 in 7.0 mi SW 11.5 mph 20.7 mph N/A Snow Light Snow
4:58 AM 21.2 °F 8.9 °F 15.8 °F 80% 29.36 in 5.0 mi SSW 12.7 mph 16.1 mph N/A Snow Light Snow
5:18 AM 21.2 °F 10.1 °F 15.8 °F 80% 29.36 in 5.0 mi SW 10.4 mph - N/A Snow Light Snow
5:38 AM 21.2 °F 11.7 °F 15.8 °F 80% 29.37 in 4.0 mi SW 8.1 mph - N/A Snow Light Snow
5:58 AM 21.2 °F 9.5 °F 15.8 °F 80% 29.38 in 5.0 mi SSW 11.5 mph - N/A Snow Light Snow
6:18 AM 21.2 °F 12.6 °F 15.8 °F 80% 29.38 in 5.0 mi SW 6.9 mph - N/A Snow Light Snow
6:38 AM 21.2 °F 12.6 °F 15.8 °F 80% 29.39 in 7.0 mi SW 6.9 mph - N/A   Overcast
6:58 AM 21.2 °F 11.7 °F 15.8 °F 80% 29.39 in 7.0 mi SW 8.1 mph - N/A   Overcast
7:18 AM 21.2 °F 10.9 °F 15.8 °F 80% 29.39 in 10.0 mi SW 9.2 mph - N/A   Overcast
7:37 AM 21.2 °F 10.9 °F 15.8 °F 80% 29.40 in 10.0 mi SW 9.2 mph - N/A   Overcast
7:57 AM 21.2 °F 13.6 °F 15.8 °F 80% 29.41 in 10.0 mi WSW 5.8 mph - N/A   Overcast
8:18 AM 21.2 °F 11.7 °F 15.8 °F 80% 29.41 in 10.0 mi WSW 8.1 mph - N/A   Overcast
8:38 AM 21.2 °F 13.6 °F 17.6 °F 86% 29.42 in 10.0 mi WSW 5.8 mph - N/A   Overcast
8:57 AM 23.0 °F 13.9 °F 17.6 °F 80% 29.43 in 10.0 mi WSW 8.1 mph - N/A   Overcast
9:18 AM 23.0 °F 15.8 °F 17.6 °F 80% 29.44 in 10.0 mi West 5.8 mph - N/A   Overcast
9:37 AM 23.0 °F 13.9 °F 17.6 °F 80% 29.45 in 10.0 mi West 8.1 mph - N/A   Overcast
9:58 AM 23.0 °F 15.8 °F 17.6 °F 80% 29.46 in 7.0 mi West 5.8 mph - N/A   Overcast
10:17 AM 24.8 °F 16.9 °F 19.4 °F 80% 29.47 in 4.0 mi West 6.9 mph - N/A   Haze
10:38 AM 24.8 °F 17.9 °F 21.2 °F 86% 29.48 in 4.0 mi WSW 5.8 mph - N/A Snow Light Snow
10:58 AM 26.6 °F 18.2 °F 21.2 °F 80% 29.49 in 5.0 mi West 8.1 mph - N/A Snow Light Snow
11:17 AM 26.6 °F 18.2 °F 21.2 °F 80% 29.50 in 5.0 mi West 8.1 mph - N/A Snow Light Snow
11:38 AM 26.6 °F 17.5 °F 21.2 °F 80% 29.50 in 4.0 mi West 9.2 mph 16.1 mph N/A Snow Light Snow
11:58 AM 26.6 °F 19.1 °F 21.2 °F 80% 29.51 in 3.0 mi West 6.9 mph - N/A Snow Light Snow
12:18 PM 28.4 °F 19.7 °F 23.0 °F 80% 29.52 in 4.0 mi WNW 9.2 mph - N/A Snow Light Snow
12:38 PM 26.6 °F 15.7 °F 21.2 °F 80% 29.52 in 1.5 mi NW 12.7 mph 18.4 mph N/A Snow Light Snow
12:58 PM 26.6 °F 16.2 °F 21.2 °F 80% 29.54 in 1.0 mi WNW 11.5 mph - N/A Snow Light Snow
1:18 PM 26.6 °F 14.7 °F 21.2 °F 80% 29.55 in 3.0 mi NW 15.0 mph 20.7 mph N/A Snow Light Snow
1:38 PM 24.8 °F 12.4 °F 17.6 °F 74% 29.57 in 5.0 mi NW 15.0 mph - N/A Snow Light Snow
1:58 PM 24.8 °F 12.4 °F 17.6 °F 74% 29.58 in 5.0 mi WNW 15.0 mph 21.9 mph N/A   Haze
2:18 PM 24.8 °F 12.9 °F 17.6 °F 74% 29.59 in 7.0 mi WNW 13.8 mph 23.0 mph N/A   Overcast
2:38 PM 24.8 °F 12.4 °F 17.6 °F 74% 29.61 in 3.0 mi NW 15.0 mph 20.7 mph N/A Snow Light Snow
2:58 PM 23.0 °F 11.7 °F 17.6 °F 80% 29.63 in 2.0 mi WNW 11.5 mph 17.3 mph N/A Snow Light Snow
3:18 PM 23.0 °F 11.7 °F 19.4 °F 86% 29.64 in 2.0 mi WNW 11.5 mph 17.3 mph N/A Snow Light Snow
3:38 PM 23.0 °F 11.7 °F 17.6 °F 80% 29.66 in 1.2 mi WNW 11.5 mph 18.4 mph N/A Snow Light Snow
3:58 PM 23.0 °F 12.4 °F 17.6 °F 80% 29.68 in 3.0 mi WNW 10.4 mph 16.1 mph N/A Snow Light Snow
4:17 PM 23.0 °F 11.1 °F 14.0 °F 68% 29.70 in 10.0 mi WNW 12.7 mph 18.4 mph N/A   Overcast
4:38 PM 21.2 °F 10.1 °F 14.0 °F 74% 29.71 in 10.0 mi WNW 10.4 mph 18.4 mph N/A   Overcast
4:58 PM 21.2 °F 9.5 °F 14.0 °F 74% 29.73 in 10.0 mi WNW 11.5 mph 17.3 mph N/A   Overcast
5:17 PM 21.2 °F 12.6 °F 14.0 °F 74% 29.74 in 10.0 mi WNW 6.9 mph - N/A Snow Light Snow
5:38 PM 21.2 °F 10.1 °F 14.0 °F 74% 29.76 in 5.0 mi West 10.4 mph - N/A Snow Light Snow
5:57 PM 21.2 °F 10.1 °F 15.8 °F 80% 29.77 in 4.0 mi WNW 10.4 mph 17.3 mph N/A Snow Light Snow
6:17 PM 21.2 °F 8.9 °F 14.0 °F 74% 29.78 in 3.0 mi WNW 12.7 mph 19.6 mph N/A Snow Light Snow
6:38 PM 21.2 °F 8.3 °F 14.0 °F 74% 29.80 in 4.0 mi WNW 13.8 mph 20.7 mph N/A Snow Light Snow
6:58 PM 19.4 °F 8.6 °F 14.0 °F 80% 29.81 in 3.0 mi NW 9.2 mph - N/A Snow Light Snow
7:18 PM 19.4 °F 7.9 °F 12.2 °F 74% 29.82 in 7.0 mi WNW 10.4 mph - N/A Snow Light Snow
7:38 PM 19.4 °F 7.9 °F 12.2 °F 74% 29.83 in 7.0 mi WNW 10.4 mph 18.4 mph N/A Snow Light Snow
7:58 PM 19.4 °F 7.9 °F 14.0 °F 80% 29.84 in 3.0 mi NW 10.4 mph - N/A Snow Light Snow
8:18 PM 19.4 °F 9.5 °F 14.0 °F 80% 29.85 in 3.0 mi WNW 8.1 mph - N/A Snow Light Snow
8:38 PM 19.4 °F 12.8 °F 14.0 °F 80% 29.86 in 10.0 mi WNW 4.6 mph - N/A Snow Light Snow
8:58 PM 19.4 °F 10.4 °F 14.0 °F 80% 29.87 in 7.0 mi WNW 6.9 mph - N/A Snow Light Snow
9:18 PM 19.4 °F 10.4 °F 14.0 °F 80% 29.87 in 4.0 mi WNW 6.9 mph - N/A Snow Light Snow
9:37 PM 19.4 °F 11.5 °F 14.0 °F 80% 29.87 in 5.0 mi NW 5.8 mph - N/A Snow Light Snow
9:58 PM 19.4 °F 8.6 °F 12.2 °F 74% 29.88 in 7.0 mi NW 9.2 mph - N/A Snow Light Snow
10:17 PM 19.4 °F 9.5 °F 12.2 °F 74% 29.89 in 7.0 mi NW 8.1 mph - N/A Snow Light Snow
10:38 PM 19.4 °F 7.9 °F 10.4 °F 68% 29.89 in 7.0 mi NW 10.4 mph 17.3 mph N/A Snow Light Snow
10:58 PM 17.6 °F - 12.2 °F 79% 29.90 in 7.0 mi North - - N/A Snow Light Snow
11:18 PM 19.4 °F 8.6 °F 12.2 °F 74% 29.90 in 7.0 mi NW 9.2 mph - N/A Snow Light Snow
11:38 PM 19.4 °F 11.5 °F 12.2 °F 74% 29.91 in 10.0 mi WNW 5.8 mph - N/A Snow Light Snow
11:57 PM 19.4 °F 11.5 °F 12.2 °F 74% 29.91 in 10.0 mi WNW 5.8 mph - N/A Snow Light Snow